Location: Newark
(46.1292°N, 1.0086°W)
Time: 21:04:55
(UTC+00:00)

Transit 4A - Visible Passes

Search period start: 17 November 2019 00:00
Search period end: 27 November 2019 00:00
Orbit: 868 x 976 km, 66.8° (Epoch: 17 November)

Date Brightness Start Highest point End Pass type
(mag) Time Alt. Az. Time Alt. Az. Time Alt. Az.
17 Nov 9.9 05:00:26 10° NNW 05:04:34 19° NNE 05:08:38 10° ENE visible
18 Nov 10.4 03:25:32 10° N 03:25:32 10° N 03:26:33 10° NNE visible
18 Nov 9.7 05:09:35 10° NNW 05:14:19 24° NE 05:18:57 10° E visible
19 Nov 10.3 03:34:50 11° N 03:35:30 12° NNE 03:37:33 10° NE visible
19 Nov 9.3 05:18:46 10° NNW 05:23:59 30° NE 05:29:05 10° ESE visible
20 Nov 10.1 03:44:10 13° N 03:45:26 14° NNE 03:48:19 10° NE visible
20 Nov 8.9 05:27:59 10° NNW 05:33:33 40° NE 05:39:01 10° ESE visible
21 Nov 10.0 03:53:33 15° N 03:55:18 16° NNE 03:58:56 10° ENE visible
21 Nov 8.4 05:37:13 10° NNW 05:43:03 55° NE 05:48:45 10° SE visible
22 Nov 9.8 04:02:59 17° N 04:05:06 20° NNE 04:09:22 10° E visible
22 Nov 7.9 05:46:31 10° NNW 05:52:28 77° NE 05:58:16 10° SE visible
23 Nov 9.5 04:12:28 20° N 04:14:49 26° NE 04:19:38 10° E visible
23 Nov 7.7 05:56:00 11° NW 06:01:48 76° WSW 06:07:35 10° SSE visible
24 Nov 9.2 04:22:01 25° N 04:24:27 33° NE 04:29:41 10° ESE visible
24 Nov 8.0 06:05:33 11° NW 06:11:02 52° WSW 06:16:39 10° S visible
25 Nov 10.5 02:48:06 12° NE 02:48:06 12° NE 02:49:09 10° ENE visible
25 Nov 8.7 04:31:39 31° N 04:33:59 45° NE 04:39:33 10° ESE visible
25 Nov 8.4 06:15:12 11° NW 06:20:13 36° WSW 06:25:26 10° S visible
26 Nov 10.3 02:57:48 15° NE 02:57:48 15° NE 02:59:43 10° ENE visible
26 Nov 8.1 04:41:22 39° N 04:43:27 62° NE 04:49:12 10° SE visible
26 Nov 8.9 06:24:55 11° WNW 06:29:19 24° WSW 06:33:53 10° SSW visible
